[keps] orb06285.2l.amsat

Ray Hoad r.hoad at att.net
Thu Oct 12 18:38:24 PDT 2006


SB KEPS @ AMSAT  $ORB06285.N
2Line Orbital Elements 06285.AMSAT

HR AMSAT ORBITAL ELEMENTS FOR AMATEUR SATELLITES IN NASA FORMAT
FROM WA5QGD FORT WORTH,TX October 12, 2006
Send SUBSCRIBE KEPS/UNSUBSCRIBE KEPS to majordomo at amsat.org only
BID: ORB06285.N

DECODE 2-LINE ELSETS WITH THE FOLLOWING KEY:
1 AAAAAU 00  0  0 BBBBB.BBBBBBBB  .CCCCCCCC  00000-0  00000-0 0  DDDZ
2 AAAAA EEE.EEEE FFF.FFFF GGGGGGG HHH.HHHH III.IIII JJ.JJJJJJJJKKKKKZ
KEY: A-CATALOGNUM B-EPOCHTIME C-DECAY D-ELSETNUM E-INCLINATION F-RAAN
G-ECCENTRICITY H-ARGPERIGEE I-MNANOM J-MNMOTION K-ORBITNUM Z-CHECKSUM

TO ALL RADIO AMATEURS BT

AO-07
1 07530U 74089B   06285.18284719 -.00000028  00000-0  10000-3 0  7021
2 07530 101.5555 325.1356 0011872 019.8220 340.3312 12.53571509460043
UO-11
1 14781U 84021B   06285.46051055 -.00000173  00000-0 -15797-4 0  1979
2 14781 098.2066 298.1702 0008199 246.0822 113.9548 14.79467632213101
RS-10/11
1 18129U 87054A   06284.94828671  .00000022  00000-0  79021-5 0 01169
2 18129 082.9214 241.7700 0012656 122.4646 237.7730 13.72779204967176
RS-15
1 23439U 94085A   06284.82306055 -.00000039  00000-0  10597-3 0 09859
2 23439 064.8182 048.5827 0166313 233.8378 124.7059 11.27551835485698
FO-29
1 24278U 96046B   06284.94314795 -.00000000  00000-0  36177-4 0 03443
2 24278 098.5194 273.3570 0351136 006.9893 353.5975 13.52925094501331
SO-33
1 25509U 98061B   06284.83437599  .00000303  00000-0  50258-4 0  7643
2 25509 031.4305 189.8496 0354999 056.1690 307.2205 14.28126443415723
VO-52
1 28650U 05017B   06284.72307494  .00000250  00000-0  38741-4 0 04528
2 28650 097.8604 355.6265 0026997 344.8003 015.2364 14.81185601077633
AO-16
1 20439U 90005D   06285.62779642 -.00000005  00000-0  13132-4 0  8670
2 20439 098.1903 288.9818 0010418 200.4074 159.6692 14.31735387873126
LO-19
1 20442U 90005G   06284.58992769 -.00000031  00000-0  35863-5 0 08018
2 20442 098.1858 297.5230 0011289 203.6339 156.4325 14.31977677873116
AO-27
1 22825U 93061C   06284.52431930 -.00000023  00000-0  73375-5 0 05188
2 22825 098.2972 260.7211 0007644 281.3977 078.6353 14.29185617679979
IO-26
1 22826U 93061D   06284.89427338 -.00000003  00000-0  15099-4 0 02112
2 22826 098.2917 262.2425 0008129 276.5826 083.4435 14.29430161680100
PO-28
1 22829U 93061G   06284.69152700  .00000022  00000-0  24245-4 0  4936
2 22829 098.2812 263.2455 0008925 248.0903 111.9355 14.30126332680297
GO-32
1 25397U 98043D   06285.74560687  .00000039  00000-0  35959-4 0  1319
2 25397 098.4535 338.2981 0000832 190.3220 169.7936 14.23112554428964
MO-46
1 26548U 00057D   06285.37805727  .00000031  00000-0  22129-4 0  6190
2 26548 064.5570 229.2496 0041276 230.7311 129.0126 14.83030188326788
NO-44
1 26931U 01043C   06284.70642186  .00000120  00000-0  79297-4 0 04236
2 26931 067.0521 067.5463 0004961 254.2944 105.7630 14.29455478262589
SO-50
1 27607U 02058C   06284.74596761 -.00000034  00000-0  16316-4 0 01443
2 27607 064.5570 119.2693 0035096 097.9534 262.5542 14.71180260204576
CO-55
1 27844U 03031E   06284.59945711  .00000076  00000-0  55977-4 0  8688
2 27844 098.7230 291.2944 0010700 087.5150 272.7250 14.20462300170185
CO-57
1 27848U 03031J   06285.57516949  .00000008  00000-0  24288-4 0  8347
2 27848 098.7212 291.5504 0010681 087.7669 272.4731 14.20287787170308
AO-51
1 28375U 04025K   06285.60210605  .00000021  00000-0  19354-4 0  6498
2 28375 098.1511 332.2060 0083141 212.2259 147.3838 14.40536261120063
CO-56
1 28941U 06005C   06284.82471623  .00018554  22768-5  22517-3 0 02400
2 28941 098.1695 314.8384 0266875 065.6831 297.2024 15.28818232035349
NOAA-10
1 16969U 86073A   06285.49522305 -.00000019  00000-0  10346-4 0  3797
2 16969 098.7584 297.3787 0012342 165.5819 194.5726 14.27305664 43890
NOAA-11
1 19531U 88089A   06285.11948873 -.00000153  00000-0 -56546-4 0  3269
2 19531 098.8236 012.2547 0011921 020.4861 339.6768 14.14819175931076
NOAA-12
1 21263U 91032A   06285.46416584 -.00000049  00000-0 -20969-5 0  8207
2 21263 098.7403 278.3077 0013542 105.5666 254.7034 14.25509574800954
MET-3/5
1 21655U 91056A   06284.90360819  .00000051  00000-0  10000-3 0 02146
2 21655 082.5568 178.3451 0013997 106.2531 254.0135 13.17007682728722
MET-2/21
1 22782U 93055A   06285.54488363 -.00000081  00000-0 -86441-4 0  6394
2 22782 082.5473 238.3383 0021357 207.6077 152.3943 13.83609455662273
OKEAN-4
1 23317U 94066A   06284.72409112  .00000285  00000-0  32494-4 0 00753
2 23317 082.5407 168.3188 0022561 355.5814 004.5203 14.82408397647249
NOAA-14
1 23455U 94089A   06285.36431013  .00000363  00000-0  21605-3 0  3196
2 23455 099.0250 344.8143 0010053 082.2755 277.9579 14.13670996607624
SICH-1
1 23657U 95046A   06284.72978935  .00000213  00000-0  24160-4 0 08775
2 23657 082.5256 309.2132 0023703 344.3538 015.6965 14.81398039599245
NOAA-15
1 25338U 98030A   06285.45709872  .00000183  00000-0  97073-4 0  6993
2 25338 098.5225 284.2840 0011226 035.6696 324.5243 14.24607105437411
RESURS
1 25394U 98043A   06284.77438031  .00000013  00000-0  23825-4 0 04959
2 25394 098.4805 343.6552 0001202 160.3307 199.7919 14.24113972428993
FENGYUN1
1 25730U 99025A   06284.56217759 -.00000233  00000-0 -10480-3 0 08472
2 25730 098.6360 272.7624 0014372 165.9145 194.2417 14.11815591382433
OKEAN-0
1 25860U 99039A   06284.61273014  .00000081  00000-0  19641-4 0 08763
2 25860 097.7334 293.5215 0001853 085.5932 274.5483 14.73394656388899
NOAA-16
1 26536U 00055A   06285.46085174  .00000315  00000-0  19584-3 0   842
2 26536 099.0836 253.5408 0010715 147.0067 213.1778 14.12376513312137
NOAA-17
1 27453U 02032A   06285.31858202  .00000134  00000-0  77348-4 0  1036
2 27453 098.6114 355.1967 0012633 095.5256 264.7383 14.23816759223449
NOAA-18
1 28654U 05018A   06285.35400772 -.00000104  00000-0 -33742-4 0  6726
2 28654 098.7982 226.1694 0013494 250.8055 109.1670 14.10997332 71906
HUBBLE
1 20580U 90037B   06284.59405361  .00000478  00000-0  24411-4 0 07327
2 20580 028.4681 011.0095 0003502 338.1279 021.9165 15.00107549702594
UARS
1 21701U 91063B   06284.57634891  .00005332  00000-0  98664-4 0 09140
2 21701 056.9761 310.3599 0106521 074.3525 286.9254 15.44885635827280
PO-34
1 25520U 98064B   06284.81136653  .00000638  00000-0  21875-4 0 06119
2 25520 028.4625 330.8717 0005668 072.8075 287.3127 15.16809566439773
ISS
1 25544U 98067A   06285.77548611  .00006008  00000-0  40349-4 0  8481
2 25544 051.6352 301.6716 0013196 089.1934 247.5183 15.76838100451708
OO-38
1 26063U 00004C   06284.67019170 -.00000001  00000-0  19936-4 0 07400
2 26063 100.1968 236.7176 0037111 138.8736 221.5252 14.35779770351395
NO-45
1 26932U 01043D   06285.76419609 -.00000070  00000-0  48876-5 0  4310
2 26932 067.0514 064.5461 0005820 233.2780 126.7783 14.29536604262771
UWE-1
1 28892U 05043C   06285.64478212  .00000151  00000-0  41578-4 0  5741
2 28892 098.1479 181.8718 0017494 161.7800 198.4014 14.59405190 51103
CO-58
1 28895U 05043F   06284.67198047  .00000159  00000-0  43223-4 0 05580
2 28895 098.1487 181.0374 0017909 165.0252 195.1462 14.59454716050843
NCUBE2
1 28897U 05043H   06283.26579192  .00000170  00000-0  45459-4 0 01324
2 28897 098.1511 179.6330 0017095 170.4767 189.6751 14.59610850042916
/EX






More information about the Keps mailing list